This is the latest recevied weather packets stored in our database for station/object IZ1GCT. If no packets are shown the sender has not sent any weather packets the latest 1 day(s).
| Time | Temp. | Humidity | Pressure | Rain* | Wind** | Luminosity | Snow |
|---|---|---|---|---|---|---|---|
| 1778058352 | 16.11° C | 65% | 1010.8 hPa | 0 mm | - | - | - |
| 1778057751 | 16.11° C | 61% | 1010.8 hPa | 0 mm | - | - | - |
| 1778057452 | 16.11° C | 62% | 1010.9 hPa | 0 mm | - | - | - |
| 1778057151 | 16.67° C | 68% | 1010.8 hPa | 0 mm | - | - | - |
| 1778056552 | 15° C | 70% | 1010.9 hPa | 0.25 mm | - | - | - |
| 1778056251 | 14.44° C | 69% | 1011 hPa | 0.25 mm | - | - | - |
| 1778055952 | 14.44° C | 69% | 1011.1 hPa | 0.25 mm | - | - | - |
| 1778055351 | 14.44° C | 73% | 1011 hPa | 0.25 mm | - | - | - |
| 1778055053 | 13.89° C | 78% | 1011.1 hPa | 0.25 mm | - | - | - |
| 1778054752 | 13.33° C | 80% | 1011.2 hPa | 0.25 mm | - | - | - |
| 1778054452 | 12.78° C | 79% | 1011.2 hPa | 0.25 mm | - | - | - |
| 1778053853 | 12.78° C | 83% | 1011.2 hPa | 0.25 mm | - | - | - |
| 1778053252 | 12.78° C | 86% | 1011.1 hPa | 0 mm | - | - | - |
| 1778052653 | 12.22° C | 90% | 1011.1 hPa | 0 mm | - | - | - |
| 1778052351 | 12.22° C | 89% | 1011.1 hPa | 0 mm | - | - | - |
| 1778052052 | 12.22° C | 89% | 1011.1 hPa | 0 mm | - | - | - |
| 1778051752 | 12.22° C | 89% | 1011 hPa | 0 mm | - | - | - |
| 1778051151 | 12.78° C | 86% | 1011.1 hPa | 0.25 mm | - | - | - |
| 1778050252 | 12.78° C | 92% | 1010.9 hPa | 0.25 mm | - | - | - |
| 1778049652 | 12.78° C | 94% | 1010.8 hPa | 0.25 mm | - | - | - |
| 1778049350 | 12.78° C | 95% | 1011 hPa | 0.25 mm | - | - | - |
| 1778048452 | 11.67° C | 97% | 1011.1 hPa | 0.51 mm | - | - | - |
| 1778048152 | 11.11° C | 96% | 1011 hPa | 0.51 mm | - | - | - |
| 1778047852 | 11.11° C | 96% | 1011 hPa | 1.02 mm | - | - | - |
| 1778047551 | 11.11° C | 97% | 1011.2 hPa | 1.02 mm | - | - | - |
* Rain latest hour (hover to see other rain measurements)
** Current wind speed in m/s (hover to see current wind gust speed)